• In Hungary
  • List of Countries
  • For 7 days
  • Water Temperature
  • Satellite Maps
  • Weather Map
  • News
  • Weather Widgets
  • user-avatar
    Login

    Hourly Weather Maloe Kapkovo

    Today, 22 July, Sunday

    Time Temperature Precipitation Wind Pressure Humidity
    00:00 +20°C° 0.4 mm 1 mps 735 mmHg 96%
    01:00 +20°C° 0.4 mm 1 mps 735 mmHg 97%
    02:00 +20°C° 0.4 mm 1 mps 735 mmHg 97%
    03:00 +20°C° 0.5 mm 1 mps 735 mmHg 97%
    04:00 +20°C° 0.5 mm 1 mps 735 mmHg 98%
    05:00 +19°C° 0.5 mm 2 mps 736 mmHg 98%
    06:00 +19°C° 0.6 mm 2 mps 736 mmHg 97%
    07:00 +20°C° 0.6 mm 2 mps 736 mmHg 96%
    08:00 +21°C° 0.6 mm 2 mps 736 mmHg 95%
    09:00 +21°C° 0.2 mm 2 mps 736 mmHg 93%
    10:00 +21°C° 0.2 mm 3 mps 736 mmHg 91%
    11:00 +21°C° 0.2 mm 3 mps 736 mmHg 90%
    12:00 +21°C° 0 mm 3 mps 736 mmHg 88%
    13:00 +21°C° 0 mm 3 mps 736 mmHg 87%
    14:00 +21°C° 0 mm 3 mps 736 mmHg 86%
    15:00 +21°C° 0 mm 3 mps 736 mmHg 86%
    16:00 +21°C° 0 mm 3 mps 737 mmHg 86%
    17:00 +21°C° 0 mm 2 mps 737 mmHg 87%
    18:00 +20°C° 0 mm 2 mps 737 mmHg 88%
    19:00 +20°C° 0 mm 2 mps 737 mmHg 90%
    20:00 +19°C° 0 mm 2 mps 737 mmHg 91%
    21:00 +19°C° 0 mm 2 mps 737 mmHg 92%
    22:00 +19°C° 0 mm 2 mps 737 mmHg 93%
    23:00 +18°C° 0 mm 2 mps 737 mmHg 94%

    Tomorrow, 23 July, Monday

    Time Temperature Precipitation Wind Pressure Humidity
    00:00 +18°C° 0 mm 2 mps 737 mmHg 94%
    01:00 +18°C° 0 mm 2 mps 737 mmHg 95%
    02:00 +17°C° 0 mm 2 mps 737 mmHg 96%
    03:00 +17°C° 0 mm 2 mps 737 mmHg 96%
    04:00 +17°C° 0 mm 2 mps 737 mmHg 96%
    05:00 +17°C° 0 mm 2 mps 737 mmHg 96%
    06:00 +18°C° 0 mm 2 mps 738 mmHg 91%
    07:00 +19°C° 0 mm 3 mps 738 mmHg 86%
    08:00 +20°C° 0 mm 3 mps 738 mmHg 81%
    09:00 +21°C° 0.1 mm 3 mps 738 mmHg 77%
    10:00 +22°C° 0.1 mm 4 mps 738 mmHg 72%
    11:00 +23°C° 0.1 mm 4 mps 738 mmHg 67%
    12:00 +23°C° 0.1 mm 4 mps 738 mmHg 66%
    13:00 +23°C° 0.1 mm 4 mps 738 mmHg 65%
    14:00 +23°C° 0.1 mm 4 mps 737 mmHg 64%
    15:00 +22°C° 0.1 mm 4 mps 737 mmHg 67%
    16:00 +22°C° 0.1 mm 3 mps 738 mmHg 70%
    17:00 +21°C° 0.1 mm 3 mps 738 mmHg 72%
    18:00 +20°C° 0 mm 3 mps 738 mmHg 78%
    19:00 +19°C° 0 mm 3 mps 738 mmHg 83%
    20:00 +18°C° 0 mm 2 mps 738 mmHg 89%
    21:00 +17°C° 0 mm 2 mps 738 mmHg 92%
    22:00 +16°C° 0 mm 2 mps 738 mmHg 94%
    23:00 +15°C° 0 mm 2 mps 738 mmHg 97%

    Day after tomorrow, 24 July, Tuesday

    Time Temperature Precipitation Wind Pressure Humidity
    00:00 +15°C° 0 mm 2 mps 738 mmHg 98%
    01:00 +15°C° 0 mm 2 mps 738 mmHg 98%
    02:00 +14°C° 0 mm 2 mps 738 mmHg 98%
    03:00 +15°C° 0 mm 2 mps 738 mmHg 97%
    04:00 +15°C° 0 mm 2 mps 738 mmHg 96%
    05:00 +14°C° 0 mm 3 mps 738 mmHg 95%
    06:00 +16°C° 0 mm 3 mps 738 mmHg 93%
    07:00 +16°C° 0 mm 3 mps 739 mmHg 91%
    08:00 +17°C° 0 mm 3 mps 739 mmHg 90%
    09:00 +18°C° 0 mm 3 mps 739 mmHg 87%
    10:00 +19°C° 0 mm 3 mps 739 mmHg 84%
    11:00 +20°C° 0 mm 3 mps 739 mmHg 82%
    12:00 +20°C° 0 mm 3 mps 739 mmHg 83%
    13:00 +20°C° 0 mm 3 mps 739 mmHg 83%
    14:00 +20°C° 0 mm 3 mps 739 mmHg 84%
    15:00 +20°C° 0 mm 3 mps 739 mmHg 85%
    16:00 +20°C° 0 mm 3 mps 739 mmHg 86%
    17:00 +20°C° 0 mm 3 mps 739 mmHg 87%
    18:00 +20°C° 0 mm 3 mps 739 mmHg 88%
    19:00 +19°C° 0 mm 2 mps 739 mmHg 90%
    20:00 +19°C° 0 mm 2 mps 739 mmHg 92%
    21:00 +19°C° 0 mm 2 mps 739 mmHg 93%
    22:00 +18°C° 0 mm 2 mps 739 mmHg 95%
    23:00 +18°C° 0 mm 2 mps 739 mmHg 96%

    25 July, Wednesday

    Time Temperature Precipitation Wind Pressure Humidity
    00:00 +18°C° 0.1 mm 2 mps 739 mmHg 97%
    01:00 +17°C° 0.1 mm 2 mps 739 mmHg 98%
    02:00 +17°C° 0.1 mm 2 mps 739 mmHg 98%
    03:00 +18°C° 0.3 mm 2 mps 740 mmHg 98%
    04:00 +18°C° 0.3 mm 2 mps 740 mmHg 98%
    05:00 +18°C° 0.3 mm 3 mps 740 mmHg 98%
    06:00 +19°C° 0 mm 3 mps 740 mmHg 95%
    07:00 +20°C° 0 mm 3 mps 740 mmHg 93%
    08:00 +21°C° 0 mm 3 mps 741 mmHg 90%
    09:00 +23°C° 0 mm 4 mps 741 mmHg 78%
    10:00 +26°C° 0 mm 4 mps 741 mmHg 66%
    11:00 +27°C° 0 mm 5 mps 741 mmHg 53%
    12:00 +28°C° 0 mm 5 mps 741 mmHg 52%
    13:00 +28°C° 0 mm 5 mps 741 mmHg 50%
    14:00 +28°C° 0 mm 5 mps 741 mmHg 48%
    15:00 +27°C° 0 mm 4 mps 741 mmHg 53%
    16:00 +26°C° 0 mm 4 mps 741 mmHg 58%
    17:00 +25°C° 0 mm 3 mps 741 mmHg 63%
    18:00 +24°C° 0 mm 3 mps 741 mmHg 67%
    19:00 +22°C° 0 mm 3 mps 741 mmHg 71%
    20:00 +20°C° 0 mm 3 mps 741 mmHg 74%
    21:00 +20°C° 0 mm 3 mps 741 mmHg 76%
    22:00 +19°C° 0 mm 3 mps 741 mmHg 77%
    23:00 +19°C° 0 mm 3 mps 741 mmHg 79%

    26 July, Thursday

    Time Temperature Precipitation Wind Pressure Humidity
    00:00 +19°C° 0 mm 3 mps 742 mmHg 80%
    01:00 +18°C° 0 mm 3 mps 742 mmHg 82%
    02:00 +18°C° 0 mm 3 mps 742 mmHg 84%
    03:00 +18°C° 0 mm 3 mps 742 mmHg 85%
    04:00 +17°C° 0 mm 3 mps 742 mmHg 86%
    05:00 +17°C° 0 mm 3 mps 743 mmHg 86%
    06:00 +19°C° 0 mm 3 mps 743 mmHg 80%
    07:00 +20°C° 0 mm 3 mps 743 mmHg 74%
    08:00 +21°C° 0 mm 3 mps 744 mmHg 68%
    09:00 +24°C° 0 mm 3 mps 744 mmHg 63%
    10:00 +25°C° 0 mm 3 mps 744 mmHg 57%
    11:00 +27°C° 0 mm 3 mps 744 mmHg 52%
    12:00 +27°C° 0 mm 3 mps 744 mmHg 52%
    13:00 +28°C° 0 mm 3 mps 744 mmHg 53%
    14:00 +28°C° 0 mm 3 mps 744 mmHg 53%
    15:00 +28°C° 0 mm 3 mps 744 mmHg 56%
    16:00 +28°C° 0 mm 3 mps 744 mmHg 60%
    17:00 +27°C° 0 mm 2 mps 744 mmHg 63%
    18:00 +26°C° 0 mm 2 mps 744 mmHg 70%
    19:00 +24°C° 0 mm 2 mps 744 mmHg 78%
    20:00 +22°C° 0 mm 1 mps 744 mmHg 85%
    21:00 +22°C° 0 mm 1 mps 744 mmHg 87%
    22:00 +21°C° 0 mm 1 mps 745 mmHg 89%
    23:00 +19°C° 0 mm 2 mps 745 mmHg 91%

    27 July, Friday

    Time Temperature Precipitation Wind Pressure Humidity
    00:00 +19°C° 0 mm 2 mps 745 mmHg 92%
    01:00 +19°C° 0 mm 2 mps 745 mmHg 93%
    02:00 +19°C° 0 mm 2 mps 745 mmHg 94%
    03:00 +19°C° 0 mm 2 mps 746 mmHg 93%
    04:00 +19°C° 0 mm 2 mps 746 mmHg 93%
    05:00 +19°C° 0 mm 2 mps 746 mmHg 92%
    06:00 +21°C° 0 mm 2 mps 746 mmHg 87%
    07:00 +24°C° 0 mm 3 mps 747 mmHg 82%
    08:00 +25°C° 0 mm 3 mps 747 mmHg 76%
    09:00 +27°C° 0 mm 3 mps 747 mmHg 69%
    10:00 +29°C° 0 mm 4 mps 747 mmHg 63%
    11:00 +30°C° 0 mm 4 mps 747 mmHg 56%
    12:00 +32°C° 0 mm 4 mps 747 mmHg 54%
    13:00 +33°C° 0 mm 4 mps 747 mmHg 51%
    14:00 +33°C° 0 mm 3 mps 747 mmHg 49%
    15:00 +33°C° 0 mm 3 mps 747 mmHg 53%
    16:00 +31°C° 0 mm 2 mps 748 mmHg 57%
    17:00 +31°C° 0 mm 2 mps 748 mmHg 60%
    18:00 +29°C° 0 mm 2 mps 748 mmHg 67%
    19:00 +27°C° 0 mm 2 mps 748 mmHg 73%
    20:00 +25°C° 0 mm 1 mps 748 mmHg 80%
    21:00 +24°C° 0.2 mm 2 mps 748 mmHg 83%
    22:00 +23°C° 0.2 mm 2 mps 748 mmHg 86%
    23:00 +21°C° 0.2 mm 2 mps 748 mmHg 89%
    Show more